Idabel, OK

8:42 PM CST on February 27, 2017 (GMT -0600)
Idabel

Weather History for K4O4 - March, 2014

Change the Weather History Date:

Monday, March 10, 2014

  Actual Average (KPRX) Record (KPRX)
Temperature  
Mean Temperature 56 °F -  
Max Temperature 75 °F 60 °F 84 °F (2006)
Min Temperature 37 °F 41 °F 26 °F (2002)
Degree Days  
Heating Degree Days 9    
Growing Degree Days 6 (Base 50)    
Moisture  
Dew Point 40 °F    
Average Humidity 67    
Maximum Humidity 100    
Minimum Humidity 25    
Precipitation  
Precipitation 0.00 in - - ()
Sea Level Pressure  
Sea Level Pressure 30.05 in    
Wind  
Wind Speed 3 mph (SSW)    
Max Wind Speed 13 mph    
Max Gust Speed 17 mph    
Visibility 6 miles    
Events      
Averages and records for this station are not official NWS values.
T = Trace of Precipitation, MM = Missing Value Source: NWS Daily Summary

Daily Weather History Graph

Daily Weather History Graph

Search for Another Location

Airport or City:

Trip Planner

Search our weather history database for the weather conditions in past years. The results will help you decide how hot, cold, wet, or windy it might be!

Date:

Astronomy

Mar. 10, 2014 Rise Set
Actual Time 7:36 AM CDT 7:23 PM CDT
Civil Twilight 7:11 AM CDT 7:48 PM CDT
Nautical Twilight 6:42 AM CDT 8:17 PM CDT
Astronomical Twilight 6:13 AM CDT 8:46 PM CDT
Moon 2:18 PM CDT (3/10) 3:37 AM CDT (3/10)
Length of Visible Light 12h 36m
Length of Day
11h 46m
Waxing Gibbous, 70% of the Moon is Illuminated
Mar 10
Waxing Gibbous
Mar 16
Full
Mar 23
Last Quarter
Mar 30
New
Apr 7
First Quarter

Hourly Weather History & Observations

Time (CDT) Temp. Windchill Dew Point Humidity Pressure Visibility Wind Dir Wind Speed Gust Speed Precip Events Conditions
12:00 AM 46.4 °F - 42.8 °F 87% 30.20 in 7.0 mi Calm Calm - N/A   Clear
12:20 AM 44.6 °F - 42.8 °F 93% 30.20 in 5.0 mi Calm Calm - N/A   Clear
12:40 AM 44.6 °F 43.1 °F 41.0 °F 87% 30.20 in 4.0 mi ESE 3.5 mph - N/A   Clear
1:00 AM 44.6 °F 43.1 °F 42.8 °F 93% 30.19 in 5.0 mi SE 3.5 mph - N/A   Clear
1:20 AM 42.8 °F - 41.0 °F 93% 30.18 in 4.0 mi Calm Calm - N/A   Clear
1:40 AM 42.8 °F - 39.2 °F 87% 30.18 in 1.8 mi Calm Calm - N/A   Unknown
2:00 AM 41.0 °F - 39.2 °F 93% 30.18 in 1.5 mi Calm Calm - N/A   Unknown
2:20 AM 41.0 °F - 39.2 °F 93% 30.17 in 0.2 mi Calm Calm - N/A   Unknown
2:43 AM 41.0 °F - 39.2 °F 93% 30.17 in 0.2 mi Calm Calm - N/A   Unknown
3:00 AM 39.2 °F - 37.4 °F 93% 30.17 in 0.2 mi Calm Calm - N/A   Unknown
3:20 AM 37.4 °F 34.9 °F 35.6 °F 93% 30.16 in 0.2 mi SSW 3.5 mph - N/A   Unknown
3:40 AM 37.4 °F 34.9 °F 35.6 °F 93% 30.16 in 0.2 mi SSW 3.5 mph - N/A   Unknown
4:00 AM 37.4 °F 33.8 °F 37.4 °F 100% 30.15 in 0.2 mi SW 4.6 mph - N/A   Overcast
4:20 AM 39.2 °F 35.9 °F 37.4 °F 93% 30.15 in 0.2 mi SW 4.6 mph - N/A   Overcast
4:40 AM 39.2 °F 37.0 °F 37.4 °F 93% 30.14 in 0.2 mi SSW 3.5 mph - N/A   Overcast
5:00 AM 39.2 °F - 37.4 °F 93% 30.13 in 0.2 mi Calm Calm - N/A   Overcast
5:20 AM 37.4 °F - 37.4 °F 100% 30.13 in 0.2 mi Calm Calm - N/A   Overcast
5:40 AM 37.4 °F - 35.6 °F 93% 30.13 in 0.2 mi Calm Calm - N/A   Overcast
6:00 AM 37.4 °F 34.9 °F 37.4 °F 100% 30.13 in 0.2 mi SSW 3.5 mph - N/A   Overcast
6:23 AM 37.4 °F - 35.6 °F 93% 30.13 in 0.2 mi Calm Calm - N/A   Overcast
6:40 AM 37.4 °F - 35.6 °F 93% 30.13 in 0.2 mi Calm Calm - N/A   Overcast
7:00 AM 37.4 °F - 35.6 °F 93% 30.13 in 0.2 mi Calm Calm - N/A   Overcast
7:20 AM 37.4 °F 34.9 °F 35.6 °F 93% 30.13 in 0.2 mi NE 3.5 mph - N/A   Overcast
7:40 AM 37.4 °F - 37.4 °F 100% 30.13 in 0.2 mi Calm Calm - N/A   Overcast
8:00 AM 39.2 °F - 37.4 °F 93% 30.13 in 0.2 mi Calm Calm - N/A   Overcast
8:20 AM 39.2 °F - 37.4 °F 93% 30.14 in 0.2 mi Calm Calm - N/A   Overcast
8:40 AM 41.0 °F - 39.2 °F 93% 30.14 in 0.2 mi Calm Calm - N/A   Overcast
9:00 AM 42.8 °F - 39.2 °F 87% 30.13 in 0.2 mi Calm Calm - N/A   Overcast
9:20 AM 42.8 °F - 42.8 °F 100% 30.14 in 0.2 mi Calm Calm - N/A   Overcast
9:40 AM 44.6 °F - 42.8 °F 93% 30.14 in 0.5 mi Calm Calm - N/A   Overcast
10:01 AM 46.4 °F - 44.6 °F 93% 30.14 in 1.2 mi Calm Calm - N/A   Overcast
10:22 AM 48.2 °F - 46.4 °F 93% 30.14 in 4.0 mi Calm Calm - N/A   Overcast
10:40 AM 50.0 °F - 48.2 °F 94% 30.14 in 7.0 mi Calm Calm - N/A   Scattered Clouds
11:01 AM 51.8 °F - 48.2 °F 88% 30.13 in 7.0 mi Calm Calm - N/A   Clear
11:22 AM 55.4 °F - 46.4 °F 72% 30.12 in 10.0 mi WSW 5.8 mph - N/A   Clear
11:40 AM 57.2 °F - 46.4 °F 67% 30.12 in 10.0 mi West 6.9 mph - N/A   Clear
12:00 PM 60.8 °F - 46.4 °F 59% 30.10 in 10.0 mi SW 3.5 mph - N/A   Clear
12:20 PM 60.8 °F - 46.4 °F 59% 30.10 in 10.0 mi SSW 3.5 mph - N/A   Clear
12:40 PM 62.6 °F - 44.6 °F 52% 30.09 in 10.0 mi SSW 8.1 mph - N/A   Clear
1:00 PM 64.4 °F - 44.6 °F 49% 30.08 in 10.0 mi South 6.9 mph - N/A   Clear
1:20 PM 66.2 °F - 44.6 °F 46% 30.07 in 10.0 mi SW 4.6 mph - N/A   Clear
1:40 PM 69.8 °F - 44.6 °F 40% 30.05 in 10.0 mi South 5.8 mph - N/A   Clear
2:00 PM 69.8 °F - 42.8 °F 38% 30.03 in 10.0 mi South 4.6 mph - N/A   Clear
2:20 PM 71.6 °F - 37.4 °F 29% 30.02 in 10.0 mi WSW 8.1 mph - N/A   Clear
2:40 PM 73.4 °F - 39.2 °F 29% 30.00 in 10.0 mi West 8.1 mph 16.1 mph N/A   Clear
3:00 PM 73.4 °F - 39.2 °F 29% 29.98 in 10.0 mi West 5.8 mph - N/A   Clear
3:20 PM 73.4 °F - 37.4 °F 27% 29.97 in 10.0 mi South 9.2 mph - N/A   Clear
3:40 PM 73.4 °F - 37.4 °F 27% 29.95 in 10.0 mi SW 8.1 mph - N/A   Clear
4:00 PM 75.2 °F - 39.2 °F 27% 29.94 in 10.0 mi South 11.5 mph 16.1 mph N/A   Clear
4:20 PM 73.4 °F - 39.2 °F 29% 29.94 in 10.0 mi SSE 10.4 mph - N/A   Clear
4:40 PM 73.4 °F - 37.4 °F 27% 29.92 in 10.0 mi SSW 12.7 mph 17.3 mph N/A   Clear
5:00 PM 73.4 °F - 35.6 °F 25% 29.92 in 10.0 mi SSW 9.2 mph - N/A   Clear
5:20 PM 73.4 °F - 37.4 °F 27% 29.92 in 10.0 mi SSW 9.2 mph - N/A   Clear
5:40 PM 73.4 °F - 37.4 °F 27% 29.91 in 10.0 mi SW 9.2 mph - N/A   Clear
6:00 PM 73.4 °F - 39.2 °F 29% 29.90 in 10.0 mi SSW 9.2 mph - N/A   Clear
6:20 PM 73.4 °F - 39.2 °F 29% 29.90 in 10.0 mi South 8.1 mph - N/A   Clear
6:40 PM 71.6 °F - 39.2 °F 31% 29.90 in 10.0 mi South 8.1 mph - N/A   Clear
7:00 PM 69.8 °F - 39.2 °F 33% 29.90 in 10.0 mi South 5.8 mph - N/A   Clear
7:20 PM 66.2 °F - 39.2 °F 37% 29.89 in 10.0 mi South 8.1 mph - N/A   Clear
7:40 PM 62.6 °F - 41.0 °F 45% 29.89 in 10.0 mi South 6.9 mph - N/A   Clear
8:00 PM 60.8 °F - 41.0 °F 48% 29.90 in 10.0 mi South 6.9 mph - N/A   Clear
8:20 PM 60.8 °F - 41.0 °F 48% 29.90 in 10.0 mi South 4.6 mph - N/A   Clear
8:40 PM 59.0 °F - 41.0 °F 51% 29.90 in 10.0 mi Calm Calm - N/A   Clear
9:00 PM 59.0 °F - 41.0 °F 51% 29.90 in 10.0 mi SSE 4.6 mph - N/A   Clear
9:20 PM 57.2 °F - 42.8 °F 59% 29.90 in 10.0 mi SSE 3.5 mph - N/A   Clear
9:40 PM 55.4 °F - 41.0 °F 58% 29.90 in 10.0 mi SSE 4.6 mph - N/A   Clear
10:00 PM 55.4 °F - 41.0 °F 58% 29.90 in 10.0 mi Calm Calm - N/A   Clear
10:20 PM 55.4 °F - 41.0 °F 58% 29.90 in 10.0 mi SSE 4.6 mph - N/A   Clear
10:40 PM 55.4 °F - 41.0 °F 58% 29.90 in 10.0 mi SSE 3.5 mph - N/A   Clear
11:00 PM 55.4 °F - 41.0 °F 58% 29.89 in 10.0 mi South 5.8 mph - N/A   Clear
11:20 PM 55.4 °F - 42.8 °F 63% 29.89 in 10.0 mi South 5.8 mph - N/A   Clear
11:40 PM 55.4 °F - 42.8 °F 63% 29.89 in 10.0 mi South 5.8 mph - N/A   Clear